Dothan, AL

11:21 AM CDT on July 25, 2017 (GMT -0500)
Dothan Regional

Weather History for KDHN - January, 2014

Change the Weather History Date:

Saturday, January 11, 2014

  Actual Average Record
Temperature  
Mean Temperature 59 °F 48 °F  
Max Temperature 70 °F 60 °F 83 °F (1949)
Min Temperature 48 °F 37 °F 15 °F (1942)
Degree Days  
Heating Degree Days 6 17  
Month to date heating degree days 239 183  
Since 1 July heating degree days 891 896  
Growing Degree Days 10 (Base 50)    
Moisture  
Dew Point 60 °F    
Average Humidity 87    
Maximum Humidity 100    
Minimum Humidity 45    
Precipitation  
Precipitation 0.92 in 0.13 in 1.64 in (1963)
Month to date precipitation 1.49 1.54  
Year to date precipitation 1.49 1.54  
Sea Level Pressure  
Sea Level Pressure 29.92 in    
Wind  
Wind Speed 13 mph (SW)    
Max Wind Speed 24 mph    
Max Gust Speed 33 mph    
Visibility 6 miles    
Events Fog , Rain , Thunderstorm    
T = Trace of Precipitation, MM = Missing Value Source: NWS Daily Summary

Daily Weather History Graph

Daily Weather History Graph

Search for Another Location

Airport or City:

Trip Planner

Search our weather history database for the weather conditions in past years. The results will help you decide how hot, cold, wet, or windy it might be!

Date:

Astronomy

Jan. 11, 2014 Rise Set
Actual Time 6:41 AM CST 4:58 PM CST
Civil Twilight 6:15 AM CST 5:24 PM CST
Nautical Twilight 5:45 AM CST 5:54 PM CST
Astronomical Twilight 5:16 AM CST 6:23 PM CST
Moon 1:39 PM CST (1/11) 2:49 AM CST (1/11)
Length of Visible Light 11h 09m
Length of Day
10h 16m
Waxing Gibbous, 83% of the Moon is Illuminated
Jan 11
Waxing Gibbous
Jan 15
Full
Jan 23
Last Quarter
Jan 30
New
Feb 6
First Quarter

Hourly Weather History & Observations

Time (CST) Temp. Dew Point Humidity Pressure Visibility Wind Dir Wind Speed Gust Speed Precip Events Conditions
12:07 AM 62.6 °F 62.6 °F 100% 30.02 in 0.5 mi South 8.1 mph - N/A Fog Fog
12:51 AM 64.4 °F 62.6 °F 94% 29.99 in 1.0 mi SSE 12.7 mph - N/A   Mist
12:53 AM 64.0 °F 63.0 °F 96% 29.98 in 1.0 mi SSE 13.8 mph - N/A   Mist
1:32 AM 64.4 °F 64.4 °F 100% 29.98 in 2.5 mi South 11.5 mph 21.9 mph N/A   Overcast
1:45 AM 64.4 °F 64.4 °F 100% 29.98 in 4.0 mi South 13.8 mph - N/A   Overcast
1:53 AM 64.9 °F 64.9 °F 100% 29.97 in 6.0 mi South 12.7 mph - N/A   Overcast
2:53 AM 66.0 °F 64.9 °F 96% 29.96 in 2.0 mi South 12.7 mph - 0.14 in Rain Heavy Rain
3:02 AM 66.2 °F 64.4 °F 94% 29.96 in 3.0 mi SSE 15.0 mph - 0.05 in Rain Light Rain
3:25 AM 64.4 °F 64.4 °F 100% 29.95 in 10.0 mi SSE 12.7 mph - 0.06 in Rain Light Rain
3:53 AM 66.0 °F 64.9 °F 96% 29.93 in 9.0 mi South 16.1 mph 21.9 mph 0.06 in   Overcast
4:53 AM 66.9 °F 66.0 °F 97% 29.93 in 10.0 mi SSW 11.5 mph - 0.00 in   Overcast
5:53 AM 66.9 °F 66.0 °F 97% 29.89 in 6.0 mi South 11.5 mph - N/A   Overcast
6:53 AM 66.9 °F 66.0 °F 97% 29.89 in 10.0 mi South 16.1 mph 21.9 mph 0.06 in Rain Light Rain
7:03 AM 68.0 °F 66.2 °F 94% 29.90 in 9.0 mi South 13.8 mph 25.3 mph 0.00 in   Overcast
7:49 AM 68.0 °F 66.2 °F 94% 29.91 in 10.0 mi South 20.7 mph 33.4 mph 0.00 in   Overcast
7:53 AM 68.0 °F 66.0 °F 93% 29.90 in 10.0 mi South 18.4 mph 31.1 mph 0.00 in   Overcast
8:53 AM 66.9 °F 64.9 °F 93% 29.88 in 9.0 mi South 19.6 mph 28.8 mph 0.01 in Rain Light Rain
9:12 AM 66.2 °F 64.4 °F 94% 29.90 in 2.5 mi South 18.4 mph 26.5 mph 0.06 in Rain Heavy Rain
9:17 AM 66.2 °F 64.4 °F 94% 29.90 in 3.0 mi South 19.6 mph - 0.06 in Rain Light Rain
9:27 AM 66.2 °F 64.4 °F 94% 29.91 in 4.0 mi SSW 23.0 mph 31.1 mph 0.08 in Rain Rain
9:31 AM 66.2 °F 64.4 °F 94% 29.92 in 3.0 mi SSW 16.1 mph 31.1 mph 0.09 in Rain , Thunderstorm Thunderstorms and Rain
9:33 AM 66.2 °F 64.4 °F 94% 29.91 in 2.0 mi SSW 17.3 mph 31.1 mph 0.10 in Rain , Thunderstorm Thunderstorms and Rain
9:37 AM 66.2 °F 64.4 °F 94% 29.91 in 3.0 mi SSW 18.4 mph 27.6 mph 0.11 in Rain , Thunderstorm Thunderstorms and Rain
9:53 AM 66.0 °F 64.0 °F 93% 29.89 in 6.0 mi South 18.4 mph 27.6 mph 0.13 in Rain , Thunderstorm Rain
10:03 AM 66.2 °F 64.4 °F 94% 29.90 in 2.0 mi SSW 20.7 mph 25.3 mph 0.10 in Rain Rain
10:05 AM 66.2 °F 64.4 °F 94% 29.90 in 1.2 mi SSW 19.6 mph 25.3 mph 0.16 in Rain Heavy Rain
10:13 AM 66.2 °F 64.4 °F 94% 29.90 in 0.8 mi SW 21.9 mph 29.9 mph 0.30 in Rain Heavy Rain
10:15 AM 66.2 °F 64.4 °F 94% 29.91 in 1.0 mi SW 24.2 mph 31.1 mph 0.34 in Rain Heavy Rain
10:23 AM 66.2 °F 64.4 °F 94% 29.92 in 1.0 mi West 20.7 mph 31.1 mph 0.46 in Rain , Thunderstorm Heavy Rain
10:31 AM 66.2 °F 64.4 °F 94% 29.92 in 3.0 mi West 16.1 mph 26.5 mph 0.48 in Rain , Thunderstorm Rain
10:41 AM 66.2 °F 64.4 °F 94% 29.91 in 7.0 mi West 12.7 mph - 0.48 in Rain Light Rain
10:53 AM 66.0 °F 63.0 °F 90% 29.89 in 7.0 mi West 11.5 mph - 0.49 in Rain Light Rain
11:06 AM 66.2 °F 62.6 °F 88% 29.91 in 10.0 mi WSW 10.4 mph 19.6 mph 0.00 in Rain Light Rain
11:53 AM 64.0 °F 60.1 °F 87% 29.84 in 5.0 mi WNW 9.2 mph - 0.03 in Rain Rain
12:53 PM 64.0 °F 61.0 °F 90% 29.83 in 10.0 mi WNW 5.8 mph - 0.00 in   Overcast
1:43 PM 66.2 °F 60.8 °F 83% 29.83 in 10.0 mi West 10.4 mph 17.3 mph N/A   Mostly Cloudy
1:53 PM 66.9 °F 61.0 °F 81% 29.82 in 10.0 mi West 10.4 mph 18.4 mph N/A   Mostly Cloudy
2:53 PM 69.1 °F 60.1 °F 73% 29.81 in 10.0 mi West 8.1 mph - N/A   Mostly Cloudy
3:00 PM 69.8 °F 60.8 °F 73% 29.83 in 10.0 mi SW 9.2 mph - N/A   Scattered Clouds
3:53 PM 68.0 °F 59.0 °F 73% 29.83 in 10.0 mi West 8.1 mph - N/A   Mostly Cloudy
4:53 PM 66.0 °F 54.0 °F 65% 29.86 in 10.0 mi WNW 12.7 mph - N/A   Mostly Cloudy
5:53 PM 60.1 °F 52.0 °F 75% 29.89 in 10.0 mi WNW 10.4 mph - N/A   Clear
6:53 PM 57.0 °F 46.0 °F 67% 29.93 in 10.0 mi WNW 8.1 mph - N/A   Clear
7:53 PM 55.0 °F 39.9 °F 57% 29.97 in 10.0 mi WNW 8.1 mph - N/A   Clear
8:53 PM 55.0 °F 34.0 °F 45% 30.01 in 10.0 mi WNW 12.7 mph - N/A   Clear
9:53 PM 52.0 °F 34.0 °F 50% 30.04 in 10.0 mi WNW 12.7 mph - N/A   Clear
10:53 PM 52.0 °F 34.0 °F 50% 30.07 in 10.0 mi WNW 10.4 mph - N/A   Clear
11:53 PM 48.0 °F 35.1 °F 61% 30.08 in 10.0 mi WNW 6.9 mph - N/A   Clear